Greybull, WY

4:12 PM MST on January 21, 2017 (GMT -0700)
Greybull

Weather History for KGEY - October, 2012

Change the Weather History Date:

Wednesday, October 17, 2012

  Actual Average Record
Temperature  
Mean Temperature 47 °F 46 °F  
Max Temperature 54 °F 60 °F 79 °F (2003)
Min Temperature 41 °F 32 °F 21 °F (1999)
Degree Days  
Heating Degree Days 18 19  
Month to date heating degree days 277  
Since 1 July heating degree days 508  
Cooling Degree Days 0 0  
Month to date cooling degree days 0  
Year to date cooling degree days 669  
Moisture  
Dew Point 14 °F    
Average Humidity 27    
Maximum Humidity 35    
Minimum Humidity 19    
Precipitation  
Precipitation 0.00 in 0.02 in 0.36 in (2007)
Month to date precipitation 0.42  
Year to date precipitation 6.75  
Sea Level Pressure  
Sea Level Pressure 29.92 in    
Wind  
Wind Speed 20 mph (NNW)    
Max Wind Speed 31 mph    
Max Gust Speed 41 mph    
Visibility 10 miles    
Events      
T = Trace of Precipitation, MM = Missing Value Source: NWS Daily Summary

Daily Weather History Graph

Daily Weather History Graph

Search for Another Location

Airport or City:

Trip Planner

Search our weather history database for the weather conditions in past years. The results will help you decide how hot, cold, wet, or windy it might be!

Date:

Astronomy

Oct. 17, 2012 Rise Set
Actual Time 7:30 AM MDT 6:23 PM MDT
Civil Twilight 7:01 AM MDT 6:53 PM MDT
Nautical Twilight 6:27 AM MDT 7:26 PM MDT
Astronomical Twilight 5:53 AM MDT 8:00 PM MDT
Moon 10:15 AM MDT (10/17) 7:54 PM MDT (10/17)
Length of Visible Light 11h 51m
Length of Day
10h 52m
Waxing Crescent, 7% of the Moon is Illuminated
Oct 17
Waxing Crescent
Oct 21
First Quarter
Oct 29
Full
Nov 6
Last Quarter
Nov 13
New

Hourly Weather History & Observations

Time (MDT) Temp. Windchill Dew Point Humidity Pressure Visibility Wind Dir Wind Speed Gust Speed Precip Events Conditions
12:53 AM 46.0 °F 38.0 °F 15.1 °F 29% 29.77 in 10.0 mi NW 21.9 mph 34.5 mph N/A   Partly Cloudy
1:53 AM 46.9 °F - 14.0 °F 27% 29.78 in 10.0 mi NNW 24.2 mph 38.0 mph N/A   Mostly Cloudy
2:53 AM 44.1 °F 37.4 °F 15.1 °F 31% 29.80 in 10.0 mi NW 13.8 mph 21.9 mph N/A   Clear
3:53 AM 45.0 °F 37.1 °F 15.1 °F 30% 29.80 in 10.0 mi NNW 19.6 mph 31.1 mph N/A   Clear
4:53 AM 43.0 °F 35.1 °F 17.1 °F 35% 29.84 in 10.0 mi NNW 17.3 mph - N/A   Overcast
5:53 AM 42.1 °F 35.2 °F 16.0 °F 35% 29.90 in 10.0 mi NW 12.7 mph - N/A   Overcast
6:53 AM 42.1 °F 35.7 °F 16.0 °F 35% 29.91 in 10.0 mi NNW 11.5 mph - N/A   Overcast
7:53 AM 41.0 °F 33.1 °F 14.0 °F 33% 29.90 in 10.0 mi NW 15.0 mph - N/A   Clear
9:53 AM 46.0 °F 38.8 °F 15.1 °F 29% 29.93 in 10.0 mi NW 18.4 mph 24.2 mph N/A   Clear
10:53 AM 48.9 °F - 15.1 °F 26% 29.92 in 10.0 mi WNW 16.1 mph 20.7 mph N/A   Clear
11:53 AM 51.1 °F - 14.0 °F 23% 29.93 in 10.0 mi NNW 20.7 mph 26.5 mph N/A   Partly Cloudy
12:53 PM 51.1 °F - 12.9 °F 22% 29.91 in 10.0 mi NNW 21.9 mph 39.1 mph N/A   Overcast
1:53 PM 53.1 °F - 12.0 °F 20% 29.88 in 10.0 mi NNW 21.9 mph 35.7 mph N/A   Overcast
2:53 PM 53.1 °F - 10.9 °F 19% 29.89 in 10.0 mi NNW 31.1 mph 41.4 mph N/A   Overcast
3:53 PM 51.1 °F - 10.9 °F 20% 29.90 in 10.0 mi NNW 28.8 mph 40.3 mph N/A   Mostly Cloudy
4:53 PM 51.1 °F - 10.0 °F 19% 29.90 in 10.0 mi NNW 23.0 mph 38.0 mph N/A   Overcast
5:53 PM 51.1 °F - 10.0 °F 19% 29.91 in 10.0 mi NNW 28.8 mph 39.1 mph N/A   Partly Cloudy
6:53 PM 46.9 °F - 12.9 °F 25% 29.96 in 10.0 mi North 20.7 mph 32.2 mph N/A   Clear
7:53 PM 46.0 °F 38.5 °F 15.1 °F 29% 29.99 in 10.0 mi NNW 19.6 mph 33.4 mph N/A   Clear
8:53 PM 46.0 °F 37.6 °F 14.0 °F 28% 30.02 in 10.0 mi NNW 24.2 mph 34.5 mph N/A   Clear
9:53 PM 45.0 °F 36.9 °F 15.1 °F 30% 30.05 in 10.0 mi NNW 20.7 mph 34.5 mph N/A   Clear
10:53 PM 44.1 °F 35.4 °F 14.0 °F 30% 30.07 in 10.0 mi NNW 21.9 mph 34.5 mph N/A   Clear
11:53 PM 44.1 °F 35.2 °F 14.0 °F 30% 30.09 in 10.0 mi NNW 23.0 mph 34.5 mph N/A   Clear